Time,TemperatureF,DewpointF,PressureIn,WindDirection,WindDirectionDegrees,WindSpeedMPH,WindSpeedGustMPH,Humidity,HourlyPrecipIn,Conditions,Clouds,dailyrainin,SoftwareType,DateUTC
2013-02-18 00:02:00,9.8,0.4,29.65,West,261,6.0,7.0,65,0.00,,,0.00,Wunderground v.1.15,2013-02-18 05:02:00,
2013-02-18 00:12:00,9.7,0.3,29.66,WSW,242,5.0,5.0,65,0.00,,,0.00,Wunderground v.1.15,2013-02-18 05:12:00,
2013-02-18 00:17:00,9.6,0.2,29.66,West,259,5.0,5.0,65,0.00,,,0.00,Wunderground v.1.15,2013-02-18 05:17:00,
2013-02-18 00:22:00,9.6,0.2,29.66,West,281,4.0,7.0,65,0.00,,,0.00,Wunderground v.1.15,2013-02-18 05:22:00,
2013-02-18 00:27:00,9.6,0.2,29.66,WSW,244,3.0,3.0,65,0.00,,,0.00,Wunderground v.1.15,2013-02-18 05:27:00,
2013-02-18 00:32:00,9.6,0.2,29.66,WNW,284,3.0,3.0,65,0.00,,,0.00,Wunderground v.1.15,2013-02-18 05:32:00,
2013-02-18 00:37:00,9.5,0.1,29.67,West,260,4.0,4.0,65,0.00,,,0.00,Wunderground v.1.15,2013-02-18 05:37:00,
2013-02-18 00:42:00,9.5,0.1,29.67,WSW,254,4.0,5.0,65,0.00,,,0.00,Wunderground v.1.15,2013-02-18 05:42:00,
2013-02-18 00:52:00,9.4,0.3,29.67,West,280,5.0,10.0,66,0.00,,,0.00,Wunderground v.1.15,2013-02-18 05:52:00,
2013-02-18 01:02:00,9.4,0.3,29.68,WNW,294,4.0,5.0,66,0.00,,,0.00,Wunderground v.1.15,2013-02-18 06:02:00,
2013-02-18 01:07:00,9.3,0.2,29.68,SW,227,4.0,4.0,66,0.00,,,0.00,Wunderground v.1.15,2013-02-18 06:07:00,
2013-02-18 01:12:00,9.3,0.2,29.68,West,273,4.0,4.0,66,0.00,,,0.00,Wunderground v.1.15,2013-02-18 06:12:00,
2013-02-18 01:22:00,9.3,0.2,29.68,WSW,242,3.0,3.0,66,0.00,,,0.00,Wunderground v.1.15,2013-02-18 06:22:00,
2013-02-18 01:27:00,9.2,-0.2,29.68,West,262,2.0,2.0,65,0.00,,,0.00,Wunderground v.1.15,2013-02-18 06:27:00,
2013-02-18 01:32:00,9.2,-0.2,29.68,SW,214,2.0,7.0,65,0.00,,,0.00,Wunderground v.1.15,2013-02-18 06:32:00,
2013-02-18 01:42:00,9.2,-0.2,29.69,WNW,298,3.0,10.0,65,0.00,,,0.00,Wunderground v.1.15,2013-02-18 06:42:00,
2013-02-18 01:47:00,9.2,-0.2,29.69,West,271,3.0,3.0,65,0.00,,,0.00,Wunderground v.1.15,2013-02-18 06:47:00,
2013-02-18 01:52:00,9.2,-0.2,29.69,WNW,291,3.0,3.0,65,0.00,,,0.00,Wunderground v.1.15,2013-02-18 06:52:00,
2013-02-18 02:02:00,9.2,-0.2,29.69,NNW,329,4.0,4.0,65,0.00,,,0.00,Wunderground v.1.15,2013-02-18 07:02:00,
2013-02-18 02:12:00,9.1,-0.3,29.70,WSW,246,4.0,4.0,65,0.00,,,0.00,Wunderground v.1.15,2013-02-18 07:12:00,
2013-02-18 02:17:00,9.0,-0.4,29.70,West,259,4.0,4.0,65,0.00,,,0.00,Wunderground v.1.15,2013-02-18 07:17:00,
2013-02-18 02:27:00,9.0,-0.4,29.71,WNW,303,3.0,7.0,65,0.00,,,0.00,Wunderground v.1.15,2013-02-18 07:27:00,
2013-02-18 02:32:00,9.0,-0.4,29.71,SW,225,2.0,13.0,65,0.00,,,0.00,Wunderground v.1.15,2013-02-18 07:32:00,
2013-02-18 02:37:00,8.9,-0.2,29.71,SW,225,3.0,3.0,66,0.00,,,0.00,Wunderground v.1.15,2013-02-18 07:37:00,
2013-02-18 02:42:00,9.0,-0.1,29.72,WNW,296,3.0,4.0,66,0.00,,,0.00,Wunderground v.1.15,2013-02-18 07:42:00,
2013-02-18 02:52:00,9.0,-0.1,29.72,SSW,202,4.0,8.0,66,0.00,,,0.00,Wunderground v.1.15,2013-02-18 07:52:00,
2013-02-18 03:02:00,8.9,0.2,29.73,WSW,244,4.0,9.0,67,0.00,,,0.00,Wunderground v.1.15,2013-02-18 08:02:00,
2013-02-18 03:07:00,8.8,0.1,29.73,East,84,3.0,3.0,67,0.00,,,0.00,Wunderground v.1.15,2013-02-18 08:07:00,
2013-02-18 03:12:00,8.7,0.0,29.73,North,349,2.0,3.0,67,0.00,,,0.00,Wunderground v.1.15,2013-02-18 08:12:00,
2013-02-18 03:22:00,8.6,-0.1,29.73,West,274,4.0,5.0,67,0.00,,,0.00,Wunderground v.1.15,2013-02-18 08:22:00,
2013-02-18 03:27:00,8.5,-0.2,29.74,East,80,3.0,3.0,67,0.00,,,0.00,Wunderground v.1.15,2013-02-18 08:27:00,
2013-02-18 03:32:00,8.5,-0.2,29.74,SW,221,3.0,4.0,67,0.00,,,0.00,Wunderground v.1.15,2013-02-18 08:32:00,
2013-02-18 03:42:00,8.5,-0.2,29.75,WNW,302,3.0,3.0,67,0.00,,,0.00,Wunderground v.1.15,2013-02-18 08:42:00,
2013-02-18 03:47:00,8.4,-0.3,29.75,WNW,299,3.0,3.0,67,0.00,,,0.00,Wunderground v.1.15,2013-02-18 08:47:00,
2013-02-18 03:52:00,8.3,-0.4,29.76,WSW,243,4.0,4.0,67,0.00,,,0.00,Wunderground v.1.15,2013-02-18 08:52:00,
2013-02-18 04:02:00,8.3,-0.4,29.77,West,277,3.0,9.0,67,0.00,,,0.00,Wunderground v.1.15,2013-02-18 09:02:00,
2013-02-18 04:12:00,8.2,-0.5,29.77,West,272,2.0,4.0,67,0.00,,,0.00,Wunderground v.1.15,2013-02-18 09:12:00,
2013-02-18 04:17:00,8.1,-0.6,29.77,West,259,2.0,5.0,67,0.00,,,0.00,Wunderground v.1.15,2013-02-18 09:17:00,
2013-02-18 04:27:00,8.1,-0.6,29.77,West,259,3.0,3.0,67,0.00,,,0.00,Wunderground v.1.15,2013-02-18 09:27:00,
2013-02-18 04:32:00,8.1,-0.6,29.77,WNW,299,2.0,3.0,67,0.00,,,0.00,Wunderground v.1.15,2013-02-18 09:32:00,
2013-02-18 04:37:00,8.1,-0.6,29.78,WSW,242,2.0,2.0,67,0.00,,,0.00,Wunderground v.1.15,2013-02-18 09:37:00,
2013-02-18 04:42:00,8.0,-0.7,29.79,West,259,2.0,3.0,67,0.00,,,0.00,Wunderground v.1.15,2013-02-18 09:42:00,
2013-02-18 04:52:00,7.9,-0.8,29.79,SSE,162,2.0,4.0,67,0.00,,,0.00,Wunderground v.1.15,2013-02-18 09:52:00,
2013-02-18 05:02:00,7.7,-0.7,29.80,WSW,238,1.0,3.0,68,0.00,,,0.00,Wunderground v.1.15,2013-02-18 10:02:00,
2013-02-18 05:07:00,7.7,-0.7,29.80,NNW,328,2.0,4.0,68,0.00,,,0.00,Wunderground v.1.15,2013-02-18 10:07:00,
2013-02-18 05:12:00,7.7,-0.7,29.81,WSW,250,2.0,4.0,68,0.00,,,0.00,Wunderground v.1.15,2013-02-18 10:12:00,
2013-02-18 05:22:00,7.6,-0.8,29.81,SW,222,2.0,2.0,68,0.00,,,0.00,Wunderground v.1.15,2013-02-18 10:22:00,
2013-02-18 05:27:00,7.6,-0.8,29.81,SW,229,1.0,1.0,68,0.00,,,0.00,Wunderground v.1.15,2013-02-18 10:27:00,
2013-02-18 05:32:00,7.5,-0.9,29.82,NW,307,1.0,1.0,68,0.00,,,0.00,Wunderground v.1.15,2013-02-18 10:32:00,
2013-02-18 05:42:00,7.4,-1.0,29.83,NW,309,2.0,4.0,68,0.00,,,0.00,Wunderground v.1.15,2013-02-18 10:42:00,
2013-02-18 05:47:00,7.3,-1.1,29.83,SSW,209,1.0,1.0,68,0.00,,,0.00,Wunderground v.1.15,2013-02-18 10:47:00,
2013-02-18 05:53:00,7.2,-1.2,29.83,SW,224,1.0,1.0,68,0.00,,,0.00,Wunderground v.1.15,2013-02-18 10:53:00,
2013-02-18 06:02:00,7.2,-0.8,29.84,NNE,30,1.0,1.0,69,0.00,,,0.00,Wunderground v.1.15,2013-02-18 11:02:00,
2013-02-18 06:12:00,7.2,-0.8,29.84,WNW,291,1.0,1.0,69,0.00,,,0.00,Wunderground v.1.15,2013-02-18 11:12:00,
2013-02-18 06:22:00,7.2,-0.8,29.85,NNE,28,1.0,1.0,69,0.00,,,0.00,Wunderground v.1.15,2013-02-18 11:22:00,
2013-02-18 06:27:00,7.2,-0.8,29.85,NNW,333,1.0,1.0,69,0.00,,,0.00,Wunderground v.1.15,2013-02-18 11:27:00,
2013-02-18 06:32:00,7.2,-0.8,29.85,SW,226,1.0,1.0,69,0.00,,,0.00,Wunderground v.1.15,2013-02-18 11:32:00,
2013-02-18 06:42:00,7.3,-1.1,29.86,NW,309,1.0,1.0,68,0.00,,,0.00,Wunderground v.1.15,2013-02-18 11:42:00,
2013-02-18 06:48:00,7.4,-1.0,29.86,NW,318,2.0,2.0,68,0.00,,,0.00,Wunderground v.1.15,2013-02-18 11:48:00,
2013-02-18 06:57:00,7.5,-1.2,29.87,WNW,302,2.0,2.0,67,0.00,,,0.00,Wunderground v.1.15,2013-02-18 11:57:00,
2013-02-18 07:07:00,7.8,-1.2,29.87,NE,38,3.0,3.0,66,0.00,,,0.00,Wunderground v.1.15,2013-02-18 12:07:00,
2013-02-18 07:12:00,7.9,-1.1,29.87,WSW,253,4.0,6.0,66,0.00,,,0.00,Wunderground v.1.15,2013-02-18 12:12:00,
2013-02-18 07:17:00,7.8,-1.2,29.87,SW,223,3.0,3.0,66,0.00,,,0.00,Wunderground v.1.15,2013-02-18 12:17:00,
2013-02-18 07:22:00,7.7,-1.3,29.88,SSW,196,3.0,7.0,66,0.00,,,0.00,Wunderground v.1.15,2013-02-18 12:22:00,
2013-02-18 07:32:00,8.0,-1.0,29.89,SSE,159,2.0,3.0,66,0.00,,,0.00,Wunderground v.1.15,2013-02-18 12:32:00,
2013-02-18 07:37:00,8.2,-1.2,29.89,SW,230,1.0,6.0,65,0.00,,,0.00,Wunderground v.1.15,2013-02-18 12:37:00,
2013-02-18 07:42:00,8.4,-1.0,29.90,WSW,242,2.0,6.0,65,0.00,,,0.00,Wunderground v.1.15,2013-02-18 12:42:00,
2013-02-18 07:52:00,9.1,-0.6,29.89,West,268,2.0,9.0,64,0.00,,,0.00,Wunderground v.1.15,2013-02-18 12:52:00,
2013-02-18 08:02:00,9.3,-0.8,29.90,West,268,5.0,8.0,63,0.00,,,0.00,Wunderground v.1.15,2013-02-18 13:02:00,
2013-02-18 08:07:00,9.5,-0.6,29.91,ENE,71,5.0,5.0,63,0.00,,,0.00,Wunderground v.1.15,2013-02-18 13:07:00,
2013-02-18 08:12:00,9.7,-0.7,29.91,NNE,25,5.0,5.0,62,0.00,,,0.00,Wunderground v.1.15,2013-02-18 13:12:00,
2013-02-18 08:22:00,9.9,-0.5,29.92,SSW,213,5.0,13.0,62,0.00,,,0.00,Wunderground v.1.15,2013-02-18 13:22:00,
2013-02-18 08:27:00,10.2,-0.2,29.93,WSW,250,6.0,6.0,62,0.00,,,0.00,Wunderground v.1.15,2013-02-18 13:27:00,
2013-02-18 08:37:00,10.8,0.0,29.93,West,274,4.0,4.0,61,0.00,,,0.00,Wunderground v.1.15,2013-02-18 13:37:00,
2013-02-18 08:42:00,11.3,0.1,29.93,WNW,291,3.0,4.0,60,0.00,,,0.00,Wunderground v.1.15,2013-02-18 13:42:00,
2013-02-18 08:47:00,11.9,0.3,29.94,SSW,209,2.0,2.0,59,0.00,,,0.00,Wunderground v.1.15,2013-02-18 13:47:00,
2013-02-18 08:52:00,12.2,0.6,29.94,East,89,2.0,2.0,59,0.00,,,0.00,Wunderground v.1.15,2013-02-18 13:52:00,
2013-02-18 09:02:00,12.9,0.5,29.94,West,279,2.0,2.0,57,0.00,,,0.00,Wunderground v.1.15,2013-02-18 14:02:00,
2013-02-18 09:12:00,13.4,0.6,29.94,WSW,252,4.0,4.0,56,0.00,,,0.00,Wunderground v.1.15,2013-02-18 14:12:00,
2013-02-18 09:22:00,13.6,0.8,29.93,WSW,238,4.0,4.0,56,0.00,,,0.00,Wunderground v.1.15,2013-02-18 14:22:00,
2013-02-18 09:28:00,13.9,1.1,29.93,WSW,258,4.0,7.0,56,0.00,,,0.00,Wunderground v.1.15,2013-02-18 14:28:00,
2013-02-18 09:33:00,14.4,1.2,29.94,NW,304,3.0,7.0,55,0.00,,,0.00,Wunderground v.1.15,2013-02-18 14:33:00,
2013-02-18 09:38:00,15.2,1.9,29.94,WNW,290,3.0,3.0,55,0.00,,,0.00,Wunderground v.1.15,2013-02-18 14:38:00,
2013-02-18 09:47:00,15.7,1.2,29.94,West,268,3.0,7.0,52,0.00,,,0.00,Wunderground v.1.15,2013-02-18 14:47:00,
2013-02-18 09:52:00,16.4,1.8,29.94,NNW,339,3.0,7.0,52,0.00,,,0.00,Wunderground v.1.15,2013-02-18 14:52:00,
2013-02-18 09:57:00,16.6,2.0,29.94,NNW,344,3.0,3.0,52,0.00,,,0.00,Wunderground v.1.15,2013-02-18 14:57:00,
2013-02-18 10:07:00,17.2,2.6,29.94,SE,136,3.0,3.0,52,0.00,,,0.00,Wunderground v.1.15,2013-02-18 15:07:00,
2013-02-18 10:12:00,17.6,2.1,29.94,West,269,3.0,3.0,50,0.00,,,0.00,Wunderground v.1.15,2013-02-18 15:12:00,
2013-02-18 10:17:00,17.9,2.4,29.94,NW,313,3.0,4.0,50,0.00,,,0.00,Wunderground v.1.15,2013-02-18 15:17:00,
2013-02-18 10:22:00,17.8,1.8,29.94,SSE,167,4.0,6.0,49,0.00,,,0.00,Wunderground v.1.15,2013-02-18 15:22:00,
2013-02-18 10:32:00,18.4,2.0,29.94,WSW,241,3.0,7.0,48,0.00,,,0.00,Wunderground v.1.15,2013-02-18 15:32:00,
2013-02-18 10:38:00,18.7,2.2,29.94,NW,304,3.0,6.0,48,0.00,,,0.00,Wunderground v.1.15,2013-02-18 15:38:00,
2013-02-18 10:47:00,19.3,1.9,29.94,SSW,213,5.0,5.0,46,0.00,,,0.00,Wunderground v.1.15,2013-02-18 15:47:00,
2013-02-18 10:52:00,19.2,1.8,29.94,WNW,300,5.0,5.0,46,0.00,,,0.00,Wunderground v.1.15,2013-02-18 15:52:00,
2013-02-18 11:02:00,19.7,1.3,29.94,WNW,291,5.0,10.0,44,0.00,,,0.00,Wunderground v.1.15,2013-02-18 16:02:00,
2013-02-18 11:07:00,20.3,1.8,29.95,SW,234,4.0,4.0,44,0.00,,,0.00,Wunderground v.1.15,2013-02-18 16:07:00,
2013-02-18 11:12:00,20.6,1.1,29.94,SSW,206,3.0,5.0,42,0.00,,,0.00,Wunderground v.1.15,2013-02-18 16:12:00,
2013-02-18 11:22:00,21.0,1.5,29.95,SW,217,3.0,4.0,42,0.00,,,0.00,Wunderground v.1.15,2013-02-18 16:22:00,
2013-02-18 11:32:00,21.0,0.4,29.94,NW,304,6.0,8.0,40,0.00,,,0.00,Wunderground v.1.15,2013-02-18 16:32:00,
2013-02-18 11:37:00,21.3,-0.4,29.94,WNW,294,6.0,6.0,38,0.00,,,0.00,Wunderground v.1.15,2013-02-18 16:37:00,
2013-02-18 11:42:00,21.6,0.4,29.94,SW,228,5.0,6.0,39,0.00,,,0.00,Wunderground v.1.15,2013-02-18 16:42:00,
2013-02-18 11:52:00,22.2,0.4,29.95,SW,225,5.0,7.0,38,0.00,,,0.00,Wunderground v.1.15,2013-02-18 16:52:00,
2013-02-18 11:58:00,22.4,0.0,29.95,South,175,5.0,5.0,37,0.00,,,0.00,Wunderground v.1.15,2013-02-18 16:58:00,
2013-02-18 12:07:00,23.2,0.1,29.95,South,190,3.0,7.0,36,0.00,,,0.00,Wunderground v.1.15,2013-02-18 17:07:00,
2013-02-18 12:12:00,23.1,0.6,29.95,NW,313,4.0,7.0,37,0.00,,,0.00,Wunderground v.1.15,2013-02-18 17:12:00,
2013-02-18 12:22:00,22.9,-0.7,29.95,NNE,14,6.0,6.0,35,0.00,,,0.00,Wunderground v.1.15,2013-02-18 17:22:00,
2013-02-18 12:27:00,23.6,-0.1,29.94,SW,233,4.0,9.0,35,0.00,,,0.00,Wunderground v.1.15,2013-02-18 17:27:00,
2013-02-18 12:32:00,23.9,0.2,29.94,WSW,253,3.0,9.0,35,0.00,,,0.00,Wunderground v.1.15,2013-02-18 17:32:00,
2013-02-18 12:42:00,24.3,-0.7,29.94,WSW,256,4.0,5.0,33,0.00,,,0.00,Wunderground v.1.15,2013-02-18 17:42:00,
2013-02-18 12:53:00,24.8,1.0,29.94,WSW,254,3.0,4.0,35,0.00,,,0.00,Wunderground v.1.15,2013-02-18 17:53:00,
2013-02-18 13:02:00,24.6,-0.5,29.94,WSW,244,4.0,8.0,33,0.00,,,0.00,Wunderground v.1.15,2013-02-18 18:02:00,
2013-02-18 13:13:00,24.4,0.6,29.94,WSW,241,6.0,10.0,35,0.00,,,0.00,Wunderground v.1.15,2013-02-18 18:13:00,
2013-02-18 13:22:00,24.8,0.4,29.95,WSW,248,5.0,5.0,34,0.00,,,0.00,Wunderground v.1.15,2013-02-18 18:22:00,
2013-02-18 13:28:00,25.1,0.6,29.95,WSW,241,4.0,5.0,34,0.00,,,0.00,Wunderground v.1.15,2013-02-18 18:28:00,
2013-02-18 13:37:00,24.8,-0.3,29.95,SW,233,6.0,6.0,33,0.00,,,0.00,Wunderground v.1.15,2013-02-18 18:37:00,
2013-02-18 13:42:00,25.0,-0.1,29.95,NW,323,6.0,11.0,33,0.00,,,0.00,Wunderground v.1.15,2013-02-18 18:42:00,
2013-02-18 13:52:00,24.5,-1.9,29.95,NW,307,8.0,16.0,31,0.00,,,0.00,Wunderground v.1.15,2013-02-18 18:52:00,
2013-02-18 14:02:00,25.1,-1.3,29.96,WNW,287,5.0,9.0,31,0.00,,,0.00,Wunderground v.1.15,2013-02-18 19:02:00,
2013-02-18 14:07:00,25.3,-1.9,29.96,SW,215,5.0,7.0,30,0.00,,,0.00,Wunderground v.1.15,2013-02-18 19:07:00,
2013-02-18 14:17:00,25.5,-1.7,29.96,WNW,290,5.0,5.0,30,0.00,,,0.00,Wunderground v.1.15,2013-02-18 19:17:00,
2013-02-18 14:22:00,25.4,-2.5,29.96,WSW,244,5.0,11.0,29,0.00,,,0.00,Wunderground v.1.15,2013-02-18 19:22:00,
2013-02-18 14:28:00,25.3,-2.6,29.97,NW,322,6.0,6.0,29,0.00,,,0.00,Wunderground v.1.15,2013-02-18 19:28:00,
2013-02-18 14:33:00,25.2,-2.0,29.97,NNE,30,6.0,6.0,30,0.00,,,0.00,Wunderground v.1.15,2013-02-18 19:33:00,
2013-02-18 14:42:00,25.5,-2.4,29.97,West,260,5.0,12.0,29,0.00,,,0.00,Wunderground v.1.15,2013-02-18 19:42:00,
2013-02-18 14:52:00,25.6,-1.6,29.97,WNW,284,4.0,4.0,30,0.00,,,0.00,Wunderground v.1.15,2013-02-18 19:52:00,
2013-02-18 14:58:00,25.8,-2.1,29.98,WSW,252,4.0,15.0,29,0.00,,,0.00,Wunderground v.1.15,2013-02-18 19:58:00,
2013-02-18 15:07:00,25.4,-3.2,29.97,WSW,257,5.0,5.0,28,0.00,,,0.00,Wunderground v.1.15,2013-02-18 20:07:00,
2013-02-18 15:12:00,25.3,-3.3,29.98,WNW,300,6.0,6.0,28,0.00,,,0.00,Wunderground v.1.15,2013-02-18 20:12:00,
2013-02-18 15:22:00,25.2,-3.4,29.98,West,270,5.0,9.0,28,0.00,,,0.00,Wunderground v.1.15,2013-02-18 20:22:00,
2013-02-18 15:28:00,25.7,-3.7,29.98,SW,224,4.0,4.0,27,0.00,,,0.00,Wunderground v.1.15,2013-02-18 20:28:00,
2013-02-18 15:37:00,25.8,-2.9,29.99,SW,226,3.0,11.0,28,0.00,,,0.00,Wunderground v.1.15,2013-02-18 20:37:00,
2013-02-18 15:42:00,25.6,-4.6,29.99,WSW,243,4.0,11.0,26,0.00,,,0.00,Wunderground v.1.15,2013-02-18 20:42:00,
2013-02-18 15:48:00,25.4,-4.0,30.00,ENE,64,5.0,5.0,27,0.00,,,0.00,Wunderground v.1.15,2013-02-18 20:48:00,
2013-02-18 15:53:00,25.4,-4.8,30.00,WSW,248,5.0,5.0,26,0.00,,,0.00,Wunderground v.1.15,2013-02-18 20:53:00,
2013-02-18 16:02:00,25.1,-5.0,30.00,WSW,245,4.0,5.0,26,0.00,,,0.00,Wunderground v.1.15,2013-02-18 21:02:00,
2013-02-18 16:12:00,25.4,-4.8,30.01,WSW,242,2.0,3.0,26,0.00,,,0.00,Wunderground v.1.15,2013-02-18 21:12:00,
2013-02-18 16:17:00,25.3,-4.1,30.01,SW,226,2.0,5.0,27,0.00,,,0.00,Wunderground v.1.15,2013-02-18 21:17:00,
2013-02-18 16:23:00,25.0,-4.3,30.01,WNW,288,3.0,5.0,27,0.00,,,0.00,Wunderground v.1.15,2013-02-18 21:23:00,
2013-02-18 16:32:00,24.5,-4.0,30.01,WSW,240,4.0,4.0,28,0.00,,,0.00,Wunderground v.1.15,2013-02-18 21:32:00,
2013-02-18 16:38:00,24.3,-4.2,30.02,WSW,254,4.0,6.0,28,0.00,,,0.00,Wunderground v.1.15,2013-02-18 21:38:00,
2013-02-18 16:48:00,23.8,-4.6,30.02,WSW,255,4.0,4.0,28,0.00,,,0.00,Wunderground v.1.15,2013-02-18 21:48:00,
2013-02-18 16:53:00,23.6,-4.8,30.02,West,261,3.0,4.0,28,0.00,,,0.00,Wunderground v.1.15,2013-02-18 21:53:00,
2013-02-18 17:02:00,23.3,-5.1,30.03,WNW,283,1.0,1.0,28,0.00,,,0.00,Wunderground v.1.15,2013-02-18 22:02:00,
2013-02-18 17:08:00,23.1,-5.2,30.02,SW,224,1.0,1.0,28,0.00,,,0.00,Wunderground v.1.15,2013-02-18 22:08:00,
2013-02-18 17:13:00,22.9,-5.4,30.03,West,265,1.0,1.0,28,0.00,,,0.00,Wunderground v.1.15,2013-02-18 22:13:00,
2013-02-18 17:22:00,22.5,-5.0,30.03,WSW,254,1.0,1.0,29,0.00,,,0.00,Wunderground v.1.15,2013-02-18 22:22:00,
2013-02-18 17:32:00,22.1,-5.4,30.04,WSW,244,0.0,3.0,29,0.00,,,0.00,Wunderground v.1.15,2013-02-18 22:32:00,
2013-02-18 17:38:00,22.0,-5.5,30.04,WSW,242,1.0,1.0,29,0.00,,,0.00,Wunderground v.1.15,2013-02-18 22:38:00,
2013-02-18 17:47:00,21.5,-4.5,30.05,WSW,243,0.0,0.0,31,0.00,,,0.00,Wunderground v.1.15,2013-02-18 22:47:00,
2013-02-18 17:52:00,21.5,-5.2,30.05,WSW,257,0.0,0.0,30,0.00,,,0.00,Wunderground v.1.15,2013-02-18 22:52:00,
2013-02-18 18:02:00,21.3,-4.7,30.05,WSW,254,0.0,1.0,31,0.00,,,0.00,Wunderground v.1.15,2013-02-18 23:02:00,
2013-02-18 18:07:00,21.3,-4.7,30.05,WSW,254,1.0,1.0,31,0.00,,,0.00,Wunderground v.1.15,2013-02-18 23:07:00,
2013-02-18 18:12:00,21.2,-4.8,30.05,WNW,298,0.0,1.0,31,0.00,,,0.00,Wunderground v.1.15,2013-02-18 23:12:00,
2013-02-18 18:22:00,21.1,-4.9,30.05,WSW,248,1.0,1.0,31,0.00,,,0.00,Wunderground v.1.15,2013-02-18 23:22:00,
2013-02-18 18:27:00,20.9,-5.0,30.05,West,268,0.0,0.0,31,0.00,,,0.00,Wunderground v.1.15,2013-02-18 23:27:00,
2013-02-18 18:32:00,20.8,-5.1,30.05,West,268,0.0,0.0,31,0.00,,,0.00,Wunderground v.1.15,2013-02-18 23:32:00,
2013-02-18 18:42:00,20.9,-5.0,30.05,WNW,301,1.0,1.0,31,0.00,,,0.00,Wunderground v.1.15,2013-02-18 23:42:00,
2013-02-18 18:47:00,21.0,-5.6,30.05,WSW,257,2.0,2.0,30,0.00,,,0.00,Wunderground v.1.15,2013-02-18 23:47:00,
2013-02-18 18:52:00,21.0,-5.0,30.05,WSW,255,2.0,4.0,31,0.00,,,0.00,Wunderground v.1.15,2013-02-18 23:52:00,
2013-02-18 19:02:00,20.6,-4.7,30.06,WSW,252,2.0,2.0,32,0.00,,,0.00,Wunderground v.1.15,2013-02-19 00:02:00,
2013-02-18 19:07:00,20.5,-5.4,30.06,WSW,245,2.0,2.0,31,0.00,,,0.00,Wunderground v.1.15,2013-02-19 00:07:00,
2013-02-18 19:12:00,20.5,-4.7,30.06,WSW,257,1.0,4.0,32,0.00,,,0.00,Wunderground v.1.15,2013-02-19 00:12:00,
2013-02-18 19:22:00,20.7,-4.6,30.06,SW,236,4.0,5.0,32,0.00,,,0.00,Wunderground v.1.15,2013-02-19 00:22:00,
2013-02-18 19:32:00,20.8,-5.1,30.07,WSW,239,3.0,7.0,31,0.00,,,0.00,Wunderground v.1.15,2013-02-19 00:32:00,
2013-02-18 19:37:00,20.6,-4.0,30.06,WSW,250,2.0,2.0,33,0.00,,,0.00,Wunderground v.1.15,2013-02-19 00:37:00,
2013-02-18 19:42:00,20.2,-4.4,30.06,West,276,1.0,3.0,33,0.00,,,0.00,Wunderground v.1.15,2013-02-19 00:42:00,
2013-02-18 19:52:00,20.2,-5.0,30.06,SW,230,1.0,7.0,32,0.00,,,0.00,Wunderground v.1.15,2013-02-19 00:52:00,
2013-02-18 19:58:00,20.3,-4.9,30.07,WNW,282,2.0,2.0,32,0.00,,,0.00,Wunderground v.1.15,2013-02-19 00:58:00,
2013-02-18 20:08:00,20.0,-3.9,30.07,West,264,0.0,1.0,34,0.00,,,0.00,Wunderground v.1.15,2013-02-19 01:08:00,
2013-02-18 20:13:00,19.7,-4.8,30.07,West,263,0.0,1.0,33,0.00,,,0.00,Wunderground v.1.15,2013-02-19 01:13:00,
2013-02-18 20:22:00,19.8,-4.7,30.07,WSW,245,1.0,2.0,33,0.00,,,0.00,Wunderground v.1.15,2013-02-19 01:22:00,
2013-02-18 20:32:00,19.7,-4.2,30.07,WSW,249,2.0,2.0,34,0.00,,,0.00,Wunderground v.1.15,2013-02-19 01:32:00,
2013-02-18 20:38:00,19.7,-4.8,30.07,WSW,257,2.0,3.0,33,0.00,,,0.00,Wunderground v.1.15,2013-02-19 01:38:00,
2013-02-18 20:43:00,19.7,-4.2,30.07,West,260,2.0,3.0,34,0.00,,,0.00,Wunderground v.1.15,2013-02-19 01:43:00,
2013-02-18 20:52:00,19.5,-4.4,30.07,West,264,1.0,1.0,34,0.00,,,0.00,Wunderground v.1.15,2013-02-19 01:52:00,
2013-02-18 21:02:00,19.5,-5.0,30.07,WSW,251,1.0,1.0,33,0.00,,,0.00,Wunderground v.1.15,2013-02-19 02:02:00,
2013-02-18 21:07:00,19.6,-4.9,30.08,West,261,1.0,1.0,33,0.00,,,0.00,Wunderground v.1.15,2013-02-19 02:07:00,
2013-02-18 21:13:00,19.4,-4.5,30.07,West,259,1.0,1.0,34,0.00,,,0.00,Wunderground v.1.15,2013-02-19 02:13:00,
2013-02-18 21:22:00,19.0,-4.8,30.08,WSW,257,0.0,0.0,34,0.00,,,0.00,Wunderground v.1.15,2013-02-19 02:22:00,
2013-02-18 21:32:00,19.2,-5.3,30.08,WSW,240,1.0,1.0,33,0.00,,,0.00,Wunderground v.1.15,2013-02-19 02:32:00,
2013-02-18 21:38:00,19.2,-4.6,30.08,WSW,245,0.0,1.0,34,0.00,,,0.00,Wunderground v.1.15,2013-02-19 02:38:00,
2013-02-18 21:48:00,19.2,-5.3,30.09,WSW,248,1.0,1.0,33,0.00,,,0.00,Wunderground v.1.15,2013-02-19 02:48:00,
2013-02-18 21:57:00,19.1,-5.3,30.08,WSW,250,0.0,0.0,33,0.00,,,0.00,Wunderground v.1.15,2013-02-19 02:57:00,
2013-02-18 22:02:00,19.1,-5.3,30.08,West,265,0.0,0.0,33,0.00,,,0.00,Wunderground v.1.15,2013-02-19 03:02:00,
2013-02-18 22:08:00,19.0,-5.4,30.08,West,266,0.0,0.0,33,0.00,,,0.00,Wunderground v.1.15,2013-02-19 03:08:00,
2013-02-18 22:13:00,18.8,-5.0,30.08,West,265,0.0,0.0,34,0.00,,,0.00,Wunderground v.1.15,2013-02-19 03:13:00,
2013-02-18 22:22:00,18.1,-5.0,30.09,West,266,0.0,0.0,35,0.00,,,0.00,Wunderground v.1.15,2013-02-19 03:22:00,
2013-02-18 22:33:00,18.1,-5.0,30.08,West,265,0.0,2.0,35,0.00,,,0.00,Wunderground v.1.15,2013-02-19 03:33:00,
2013-02-18 22:42:00,18.1,-5.6,30.09,West,265,0.0,0.0,34,0.00,,,0.00,Wunderground v.1.15,2013-02-19 03:42:00,
2013-02-18 22:52:00,17.9,-4.6,30.09,West,265,0.0,0.0,36,0.00,,,0.00,Wunderground v.1.15,2013-02-19 03:52:00,
2013-02-18 22:58:00,17.7,-4.8,30.09,West,264,0.0,0.0,36,0.00,,,0.00,Wunderground v.1.15,2013-02-19 03:58:00,
2013-02-18 23:03:00,17.6,-4.9,30.09,West,265,0.0,0.0,36,0.00,,,0.00,Wunderground v.1.15,2013-02-19 04:03:00,
2013-02-18 23:12:00,17.6,-5.5,30.09,WSW,245,0.0,0.0,35,0.00,,,0.00,Wunderground v.1.15,2013-02-19 04:12:00,
2013-02-18 23:22:00,17.6,-4.3,30.09,WSW,245,0.0,0.0,37,0.00,,,0.00,Wunderground v.1.15,2013-02-19 04:22:00,
2013-02-18 23:27:00,17.6,-4.9,30.09,WSW,252,0.0,1.0,36,0.00,,,0.00,Wunderground v.1.15,2013-02-19 04:27:00,
2013-02-18 23:32:00,17.7,-5.4,30.09,WSW,251,0.0,1.0,35,0.00,,,0.00,Wunderground v.1.15,2013-02-19 04:32:00,
2013-02-18 23:42:00,18.1,-5.6,30.10,SW,232,1.0,3.0,34,0.00,,,0.00,Wunderground v.1.15,2013-02-19 04:42:00,
2013-02-18 23:48:00,17.8,-5.3,30.10,SW,234,1.0,1.0,35,0.00,,,0.00,Wunderground v.1.15,2013-02-19 04:48:00,
2013-02-18 23:57:00,17.2,-4.7,30.10,WSW,242,2.0,2.0,37,0.00,,,0.00,Wunderground v.1.15,2013-02-19 04:57:00,